sat.trackr.live / text

‹ back to catalog

STARLINK-35652

NORAD 66393 · 2025-257P

PAYLOAD ACTIVE UNKNOWN

§ Identity

Operator
Country
US
Launch date
2025-11-09
Launch site
AFETR
Launch vehicle
Mass (kg)
RCS (m²)

Purposes: comms

External: N2YO · Heavens-Above · Gunter

§ Orbital elements

Epoch: 2026-05-24T22:40:13.402848Z

Period
94.11 min
Inclination
53.1593°
Eccentricity
0.0001294
Mean motion
15.30198233 rev/d
Perigee alt
474.3 km
Apogee alt
476.1 km
Semi-major
6,853.4 km
B*
5.3180e-4
RAAN
223.1690°
Arg perigee
77.6209°
Mean anomaly
282.4937°
Rev number
3,140

§ Raw data

STARLINK-356521 66393U 25257P   26144.94459957  .00015423  00000+0  53180-3 0  99912 66393  53.1593 223.1690 0001294  77.6209 282.4937 15.30198233 31403

JSON: /api/v1/satellites/66393 · /tle

For live sub-satellite position, see the globe view (requires WebGL).

§ Visibility from observer

Set your observer location to see the next 7 days of passes ≥ 10°. The values pass through the URL so the page stays shareable.

No JS? Fill the form by hand. The geolocation button needs JavaScript.